Simultaneous Nadir Overpasses (SNOs) Predictions

Prediction of SNOs between NPP and TERRA Satellite Orbit:

Table of predicted SNOs for the next 14.0 days since TLE Epoch: 6/14/2024
Index Date (NPP) Time (NPP) Lat,Lon (NPP) SZA (NPP ) Date (TERRA) Time (TERRA) Lat,Lon (TERRA) SZA (TERRA ) Distance(km) Time Diff (sec)
1 06/15/2024 23:59:31 72.24, 172.90 48.97 06/16/2024 00:00:04 72.25, 172.81 48.97 3.13 33
2 06/16/2024 00:50:14 -72.20, -19.70 131.08 06/16/2024 00:49:28 -72.20, -19.63 131.08 2.43 46
3 06/18/2024 11:12:02 72.79, 3.72 49.51 06/18/2024 11:13:11 72.69, 5.26 49.32 52.02 69
4 06/18/2024 12:02:35 -72.23, 172.15 131.10 06/18/2024 12:02:42 -72.27, 172.14 131.07 3.61 7
5 06/18/2024 12:53:17 72.03, -20.16 48.69 06/18/2024 12:52:04 72.11, -20.47 48.79 13.31 73
6 06/20/2024 23:14:57 -72.33, 3.88 131.01 06/20/2024 23:15:56 -72.31, 3.86 131.05 2.38 59
7 06/21/2024 00:05:41 72.23, 171.38 48.89 06/21/2024 00:05:16 72.25, 171.44 48.91 3.17 25
8 06/23/2024 11:18:02 72.28, 3.20 48.97 06/23/2024 11:18:29 72.31, 3.20 49.00 3.69 27
9 06/23/2024 12:08:44 -72.18, 170.70 131.14 06/23/2024 12:07:54 -72.21, 170.67 131.10 3.27 50
10 06/25/2024 22:30:28 72.59,-165.51 49.38 06/25/2024 22:31:39 72.51,-164.79 49.24 25.81 71
11 06/25/2024 23:21:06 -72.29, 2.41 130.95 06/25/2024 23:21:06 -72.30, 2.48 130.95 2.46 0
12 06/26/2024 00:11:43 71.84, 170.58 48.57 06/26/2024 00:10:32 71.92, 169.49 48.72 38.56 71
13 06/28/2024 10:33:26 -72.35,-165.80 130.77 06/28/2024 10:34:17 -72.35,-165.76 130.78 1.27 51
14 06/28/2024 11:24:10 72.26, 1.69 49.14 06/28/2024 11:23:38 72.24, 1.72 49.13 2.47 32



Historial Predications of SNOs between NPP and TERRA
